Tracking 29892 objects as of 21-Nov-2024
HD Live streaming from Space Station
objects crossing your sky now

CZ-3C DEB

Track CZ-3C DEB now!


NORAD ID: 40203
Int'l Code: 2012-008N
Perigee: 488.4 km
Apogee: 34,616.3 km
Inclination: 20.8 °
Period: 613.7 minutes
Semi major axis: 23923 km
RCS: Unknown
Launch date: February 24, 2012
Source: People's Republic of China (PRC)
Launch site: Xichang Space Center, China (XSC)

Note: This is SATELLITE DEBRIS
Your satellite tracking list
Your tracking list is empty




NASA's NSSDC Master Catalog

Two Line Element Set (TLE):
1 40203U 12008N   24324.42545271  .00000103  00000-0  12682-2 0  9990
2 40203  20.8244  56.2399 7132775 133.2578 313.8994  2.34623278 93888
Source of the keplerian elements: AFSPC